Miscellaneous Local Product
Issued by NWS Hastings, NE

Home | Current Version | Previous Version | Graphics & Text | Print | Product List | Glossary On
Versions: 1 2 3 4 5 6 7 8 9 10 11 12 13 14 15 16 17 18 19 20 21 22 23 24 25 26 27 28 29 30 31 32 33 34 35 36 37 38 39 40 41 42 43 44 45 46 47 48 49 50
000
AXUS43 KGID 240602
MISGRI

GID CWA HOURLY WEATHER ROUNDUP
NATIONAL WEATHER SERVICE HASTINGS NE
100 AM CDT THU JUL 24 2014

NOTE: "FAIR" INDICATES FEW OR NO CLOUDS BELOW 12,000 FEET WITH NO
SIGNIFICANT WEATHER AND/OR OBSTRUCTIONS TO VISIBILITY.

...SOUTH CENTRAL NEBRASKA...

CITY           SKY/WX    TMP DP  RH WIND       PRES   REMARKS
GRAND ISLAND   PTCLDY    67  60  78 E7        30.17S
HASTINGS       PTCLDY    71  58  63 SE10      30.16F
KEARNEY        PTCLDY    66  61  82 SE6       30.16F
ORD            CLEAR     66  60  81 SE6       30.15S
YORK           PTCLDY    66  63  88 SE5       30.17F
AURORA         CLEAR     67  63  89 SE7       30.17F
LEXINGTON      CLEAR     67  62  83 SE9       30.16F
HOLDREGE       CLEAR     66  60  79 SE8       30.16S
HEBRON         CLEAR     64  59  85 CALM      30.16S

...NEBRASKA PANHANDLE...

CITY           SKY/WX    TMP DP  RH WIND       PRES   REMARKS
CHADRON        PTCLDY    77  64  64 S23G35    30.00S
ALLIANCE       CLEAR     70  64  81 S25G31    30.10S
SCOTTSBLUFF    CLEAR     72  65  78 E14       30.08S
SIDNEY         PTCLDY    72  61  68 SE13      30.17S

...WESTERN AND NORTH CENTRAL NEBRASKA...

CITY           SKY/WX    TMP DP  RH WIND       PRES   REMARKS
VALENTINE      PTCLDY    70  59  68 SE12      30.10F
AINSWORTH      CLEAR     68  58  70 SE14      30.13F
ONEILL         PTCLDY    67  58  73 SE7       30.16F
BROKEN BOW     CLEAR     65  61  87 SE8       30.16S
IMPERIAL       CLEAR     68  63  84 SE14      30.16S
NORTH PLATTE   CLEAR     64  61  90 E8        30.15S
MCCOOK         CLEAR     69  63  81 SE8       30.16R

...EASTERN NEBRASKA...

CITY           SKY/WX    TMP DP  RH WIND       PRES   REMARKS
NORFOLK        CLEAR     65  59  81 SE6       30.16F
SO SIOUX CITY  CLEAR     66  61  84 E3        30.16S
TEKAMAH        CLEAR     64  59  83 CALM      30.16S
COLUMBUS       CLEAR     64  57  77 E5        30.16F
ALBION         CLEAR     61  58  90 CALM      30.16F
OMAHA EPPLEY   CLEAR     71  61  70 SE7       30.16F
OFFUTT AFB     MOCLDY    66  65  97 CALM      30.16S
MILLARD        CLEAR     72  63  73 SE3       30.16S
LINCOLN        CLEAR     68  60  75 CALM      30.16F
NEBRASKA CITY  CLEAR     68  63  82 SE5       30.17S
BEATRICE       CLEAR     66  62  86 CALM      30.16F
FALLS CITY     CLEAR     66  64  93 E3        30.15S

...NORTHERN KANSAS...

CITY           SKY/WX    TMP DP  RH WIND       PRES   REMARKS
GOODLAND       CLEAR     70  65  84 SE12      30.19F
HILL CITY      CLEAR     68  63  84 E3        30.16S
HAYS           CLEAR     70  59  68 E8        30.15F
RUSSELL        CLEAR     72  62  71 SE10      30.14F
CONCORDIA      CLEAR     68  62  81 E7        30.15S
SALINA         CLEAR     75  63  66 SE5       30.13F
TOPEKA         CLEAR     72  66  81 CALM      30.14S



USA.gov is the U.S. government's official web portal to all federal, state and local government web resources and services.